Regional Weather Roundup
Issued by NWS Little Rock, AR

Home | Current Version | Previous Version | Graphics & Text | Print | Product List | Glossary On
Versions: 1 2 3 4 5 6 7 8 9 10 11 12 13 14 15 16 17 18 19 20 21 22 23 24 25 26 27 28 29 30 31 32 33 34 35 36 37 38 39 40 41 42 43 44 45 46 47 48 49 50
000
ASUS44 KLZK 101805
RWRLZK

WEATHER ROUNDUP FOR ARKANSAS
NATIONAL WEATHER SERVICE LITTLE ROCK AR
1200 PM CST SUN DEC 10 2017

NOTE: "FAIR" INDICATES FEW OR NO CLOUDS BELOW 12,000 FEET WITH NO
SIGNIFICANT WEATHER AND/OR OBSTRUCTIONS TO VISIBILITY.

ARZ001-003-010-029-101900-
NORTHWEST ARKANSAS

CITY           SKY/WX    TMP DP  RH WIND       PRES   REMARKS
FAYETTEVILLE   SUNNY     55  24  30 W9        30.21F
6HR MIN TEMP:  21; 6HR MAX TEMP:  55;

FORT SMITH     SUNNY     54  28  36 W14       30.24F
6HR MIN TEMP:  24; 6HR MAX TEMP:  54;

HARRISON       SUNNY     59  20  22 W12G20    30.14F
6HR MIN TEMP:  26; 6HR MAX TEMP:  59;

BENTONVILLE    SUNNY     51  24  34 W8        30.21F
6HR MIN TEMP:  26; 6HR MAX TEMP:  51;

ROGERS         SUNNY     52  24  33 W10       30.20F
6HR MIN TEMP:  32; 6HR MAX TEMP:  52;

SILOAM SPGS    SUNNY     53  25  33 W10       30.21F
6HR MIN TEMP:  27; 6HR MAX TEMP:  53;

HIGHFILL       SUNNY     52  26  36 W9        30.20F
6HR MIN TEMP:  28; 6HR MAX TEMP:  52;

SPRINGDALE     SUNNY     52  23  32 W10       30.21F
$$

ARZ004-005-016-101900-
NORTH CENTRAL ARKANSAS

CITY           SKY/WX    TMP DP  RH WIND       PRES   REMARKS
BATESVILLE     SUNNY     55  25  31 SW17      30.17F
6HR MIN TEMP:  27; 6HR MAX TEMP:  55;

FLIPPIN        SUNNY     62  24  23 W10       30.13F
6HR MIN TEMP:  20; 6HR MAX TEMP:  62;

MTN HOME       SUNNY     56  25  30 VRB6      30.12F
6HR MIN TEMP:  26; 6HR MAX TEMP:  56;

$$

ARZ040-041-101900-
WEST CENTRAL ARKANSAS

CITY           SKY/WX    TMP DP  RH WIND       PRES   REMARKS
MENA           SUNNY     61  27  27 SW9G16    30.27F
MOUNT IDA      SUNNY     62  25  24 VRB5G22   30.23F
6HR MIN TEMP:  22; 6HR MAX TEMP:  62;

$$

ARZ009-017-025-026-028-101900-
NORTHEAST ARKANSAS

CITY           SKY/WX    TMP DP  RH WIND       PRES   REMARKS
JONESBORO      SUNNY     49  30  48 SW20G32   30.17F
6HR MIN TEMP:  26; 6HR MAX TEMP:  49;

NEWPORT        SUNNY     51  27  39 SW23      30.17F
6HR MIN TEMP:  25; 6HR MAX TEMP:  51;

WALNUT RIDGE   SUNNY     51  26  37 SW21G26   30.15F
6HR MIN TEMP:  22; 6HR MAX TEMP:  51;

BLYTHEVILLE    SUNNY     47  30  51 SW22G30   30.20F
6HR MIN TEMP:  25; 6HR MAX TEMP:  47;

$$

ARZ022-023-033-042-044-101900-
CENTRAL ARKANSAS

CITY           SKY/WX    TMP DP  RH WIND       PRES   REMARKS
LITTLE ROCK    SUNNY     55  26  32 SW14G22   30.26F
6HR MIN TEMP:  26; 6HR MAX TEMP:  56;

N LITTLE ROCK    N/A     55  29  36 SW10      30.27F
6HR MIN TEMP:  31; 6HR MAX TEMP:  55;

JACKSONVILLE   SUNNY     57  26  31 S13       30.22F
6HR MIN TEMP:  20; 6HR MAX TEMP:  57;

SEARCY         SUNNY     56  27  32 SW10      30.22
6HR MIN TEMP:  20; 6HR MAX TEMP:  56;

HOT SPRINGS    SUNNY     58  26  29 W14G22    30.27F
6HR MIN TEMP:  25; 6HR MAX TEMP:  58;

RUSSELLVILLE   SUNNY     51  26  37 NW3       30.22F
6HR MIN TEMP:  21; 6HR MAX TEMP:  51;

CLINTON        FAIR      54  25  32 SW8G16    30.20F
$$

ARZ036-101900-
EAST ARKANSAS

CITY           SKY/WX    TMP DP  RH WIND       PRES   REMARKS
WEST MEMPHIS   SUNNY     49  27  42 SW14G22   30.24F
6HR MIN TEMP:  22; 6HR MAX TEMP:  49; 6HR PCP: TRACE;

$$

ARZ050-053-066-070-073-101900-
SOUTHWEST ARKANSAS

CITY           SKY/WX    TMP DP  RH WIND       PRES   REMARKS
ARKADELPHIA    FAIR      58  29  33 SW14      30.31F
6HR MIN TEMP:  19; 6HR MAX TEMP:  58;

CAMDEN         SUNNY     61  25  25 SW9       30.33F
TEXARKANA      SUNNY     57  28  33 SW14      30.33F
6HR MIN TEMP:  30; 6HR MAX TEMP:  57;

EL DORADO      SUNNY     57  29  34 SW10      30.35F
6HR MIN TEMP:  24; 6HR MAX TEMP:  57;

DE QUEEN       SUNNY     57  30  35 W10       30.30F
6HR MIN TEMP:  21; 6HR MAX TEMP:  58;

$$

ARZ056-057-069-101900-
SOUTHEAST ARKANSAS

CITY           SKY/WX    TMP DP  RH WIND       PRES   REMARKS
STUTTGART      SUNNY     53  28  38 SW17      30.27F
6HR MIN TEMP:  27; 6HR MAX TEMP:  53;

MONTICELLO     SUNNY     55  23  28 SW12G21   30.32F
6HR MIN TEMP:  27; 6HR MAX TEMP:  55;


$$





USA.gov is the U.S. government's official web portal to all federal, state and local government web resources and services.